User: anonymous
Location: Unspecified
(0.0000°N, 0.0000°E)
Time: 13:15:45
(UTC+02:00)
Language:

NATO 3D Rocket - Orbit

View from above orbital plane
View from above orbital plane
View from above satellite
View from above satellite

Ground track
Ground track

The orbit data is extracted from the following two-line orbital elements,

1 15392U 84115B   14240.73751135  .00000270  00000-0  10209-3 0  1886
2 15392 021.4958 307.5484 1035071 300.2550 232.6659 12.45427024356316
Epoch (UTC): 28 August 2014 17:42:00
Eccentricity: 0.1035071
inclination: 21.4958°
perigee height: 670 km
apogee height: 2297 km
right ascension of ascending node: 307.5484°
argument of perigee: 300.2550°
revolutions per day: 12.45427024
mean anomaly at epoch: 232.6659°
orbit number at epoch: 35631

The dashed part of the orbit path shows where the satellite is in the earth's shadow,  

DLR